Temperature
17 17 17 17 17 17 17 17 16 16 16 17 17 17 17 17 17 17 17 16 16 16 16 16 16 16 16 16 16 16 15 15 15 15 15 15 15 15
17 17 17 17 17 17 16 16 16 16 16 16 16 16 16 16 16 16 16 16 16 16 16 16 16 16 16 16 16 16 16 15 15 15 15 15 14 14
17 17 17 17 16 16 16 16 16 16 16 16 16 16 16 16 16 16 16 16 16 16 16 16 16 16 16 16 16 15 15 15 15 15 15 14 14 14
17 17 16 16 16 16 16 16 16 16 15 15 16 16 16 16 16 16 16 16 16 16 16 16 15 15 15 15 15 15 15 15 15 15 15 14 14 14
16 16 16 16 16 16 16 16 15 15 15 15 15 15 15 15 15 15 15 15 15 15 15 15 15 15 15 15 15 15 15 15 15 15 15 14 14 14
16 16 16 16 16 16 15 15 15 15 15 15 15 15 15 15 15 15 15 15 15 15 15 15 15 15 15 15 15 15 15 15 14 14 14 14 14 14
16 16 16 16 16 15 15 15 15 15 15 14 14 14 14 14 14 14 14 14 14 14 14 14 14 14 14 14 14 14 14 14 14 14 14 14 14 14
16 16 16 15 15 15 15 15 15 14 14 14 14 14 14 14 14 14 13 13 13 13 13 14 14 14 14 14 14 14 14 14 14 14 14 14 14 14
16 16 15 15 15 15 15 15 14 14 14 14 14 14 13 13 13 13 13 13 13 13 13 13 13 14 14 14 13 13 13 13 13 13 13 13 13 13
15 15 15 15 15 15 14 14 14 14 14 14 13 13 13 13 13 13 13 13 13 13 13 13 13 13 13 13 13 13 13 13 13 13 13 13 13 13
16 15 15 15 15 14 14 14 14 14 14 13 13 13 13 13 13 13 12 12 12 12 12 12 12 12 13 13 13 13 13 13 13 13 13 13 13 12
15 15 15 14 14 14 14 14 14 14 13 13 13 13 13 13 13 12 12 12 12 12 12 12 12 12 12 12 12 12 12 12 12 12 12 12 12 12
15 15 14 14 14 14 13 13 13 13 13 13 13 13 13 13 13 12 12 12 11 11 12 12 11 11 11 11 12 12 12 12 12 12 12 12 12 12
14 14 14 14 13 13 13 13 13 13 13 12 12 12 12 12 12 12 12 12 12 11 11 11 11 11 11 11 11 11 11 11 11 11 11 11 11 11
14 14 13 13 13 13 13 13 13 12 12 12 12 12 12 12 12 12 12 12 11 11 11 11 11 11 11 11 11 11 11 11 11 11 11 11 11 11
14 13 13 13 13 12 12 12 12 12 12 12 11 11 11 11 11 11 11 11 11 11 11 11 11 11 11 11 11 11 11 11 11 11 11 10 10 10
13 13 13 13 12 12 12 12 12 12 11 11 11 11 11 11 11 11 11 11 11 10 11 11 11 11 11 11 11 11 11 11 11 10 10 10 10 10
12 12 12 12 12 12 11 11 11 11 11 11 11 11 11 11 11 11 11 10 10 10 10 10 10 11 11 10 11 10 10 10 10 10 10 10 10 10
12 12 11 11 11 11 11 11 11 11 11 10 10 10 10 10 10 10 10 10 10 10 10 10 10 10 10 10 10 10 10 10 10 10 10 10 10 10
11 11 11 11 11 11 11 10 10 10 10 10 10 10 10 10 10 10 10 10 10 10 10 10 10 10 9 9 9 10 10 10 9 9 9 9 9 10
11 11 10 10 10 10 10 10 10 10 10 9 9 9 9 9 9 9 9 9 9 9 9 9 9 9 9 9 9 9 9 9 9 9 9 9 9 9
10 10 10 10 10 10 10 9 9 9 9 9 9 9 9 9 9 8 8 9 9 9 9 9 9 9 9 9 9 9 9 9 9 9 9 9 8 8
10 10 10 9 9 9 9 9 9 9 9 9 8 8 8 8 8 8 8 8 8 8 8 8 8 8 8 8 8 8 8 8 8 9 9 9 9 9
Wind_Speed
2 2 1 2 1 1 1 2 2 2 4 3 3 3 3 4 6 6 7 9 12 13 13 12 12 11 11 11 11 10 10 10 11 12 12 13 14 14
1 1 1 1 1 1 1 1 2 3 3 3 3 3 3 3 4 5 6 8 9 10 11 12 12 12 12 11 11 11 11 11 11 11 11 11 12 13
2 1 2 2 1 2 1 1 1 2 3 4 3 3 1 2 2 3 4 4 6 8 10 10 11 11 11 11 11 11 11 11 11 11 11 11 11 12
3 2 3 2 2 2 2 2 2 2 3 5 4 3 3 2 2 2 2 3 4 5 7 9 10 10 10 11 11 11 11 11 11 12 12 11 11 11
4 4 4 3 3 3 3 3 3 3 3 3 4 3 2 2 2 2 2 2 3 4 5 6 7 8 9 10 10 11 11 11 11 12 12 12 12 12
4 4 5 4 4 4 3 4 3 3 3 3 3 3 3 2 1 2 3 2 3 3 3 5 5 6 8 8 9 10 10 11 11 12 12 12 12 12
4 4 5 5 4 4 3 3 3 3 3 2 3 3 3 2 2 2 3 3 3 1 2 3 2 2 4 6 7 8 9 10 11 11 12 12 12 12
4 5 5 4 4 5 6 5 4 4 3 3 3 4 5 3 2 2 2 2 3 2 1 3 1 2 3 3 5 7 8 9 9 11 11 12 12 12
4 4 4 4 4 4 5 6 6 6 5 4 5 5 4 4 3 3 3 3 4 3 1 3 2 3 4 4 6 6 7 7 8 9 11 11 12 12
4 5 5 5 5 3 4 4 5 5 6 4 5 6 5 4 4 4 4 4 4 3 2 3 3 3 4 4 6 7 7 7 7 7 9 10 11 12
5 4 4 5 6 4 3 4 6 6 6 6 6 6 6 6 4 2 2 2 3 4 2 2 3 3 3 3 4 6 7 7 6 7 8 8 10 10
4 4 5 6 7 5 4 4 6 7 5 5 5 5 4 5 5 4 4 3 3 3 3 2 2 1 2 3 2 2 3 5 6 6 7 8 8 6
4 4 5 7 7 7 6 5 8 7 4 4 4 4 3 3 4 4 4 4 4 5 4 3 3 2 2 2 2 2 2 2 2 3 6 7 8 8
5 4 5 6 7 7 5 7 8 5 3 3 4 4 4 4 4 4 4 4 5 6 5 4 3 3 3 3 3 2 2 2 2 2 2 4 6 9
4 6 7 7 6 5 6 7 5 3 3 3 4 5 5 5 4 3 3 3 4 5 4 3 4 4 4 4 3 2 2 2 2 2 2 3 3 4
4 5 6 6 4 5 4 4 3 4 4 4 4 4 3 2 3 2 3 2 2 4 4 4 4 4 4 4 4 3 3 2 2 3 3 3 3 4
2 2 2 3 3 3 3 3 3 2 3 3 3 3 3 3 3 3 2 2 3 4 4 3 2 2 4 4 3 4 3 3 3 3 2 3 4 4
1 1 3 3 3 4 4 4 3 3 3 3 3 4 4 4 4 3 2 3 4 4 4 3 1 1 2 2 5 5 3 3 3 3 3 3 4 4
1 2 3 3 4 4 4 4 3 3 3 3 3 3 3 3 3 3 3 3 3 3 3 2 2 2 2 4 4 4 4 3 2 2 3 4 4 4
1 2 3 4 3 3 3 3 3 3 2 3 3 3 3 2 2 3 3 3 3 3 3 2 2 3 4 4 4 4 4 4 3 3 3 3 3 3
2 2 3 3 3 3 3 3 2 2 2 2 2 2 2 2 3 3 3 3 3 2 3 3 4 4 2 1 2 3 3 4 4 4 3 2 2 2
2 2 2 2 2 2 3 2 2 2 2 2 2 2 2 2 3 3 3 3 3 3 3 3 3 1 1 2 3 4 4 3 3 4 4 4 3 4
2 2 2 2 2 2 2 2 1 2 2 2 2 3 3 2 3 3 3 3 3 2 2 2 2 1 1 2 2 3 3 3 2 2 4 5 5 6
Wind_Direction
259 266 276 287 275 252 225 200 196 265 285 281 284 277 256 245 250 241 238 238 235 233 232 231 232 232 233 235 237 235 234 235 236 236 234 232 231 228
280 307 301 286 296 304 255 237 204 206 254 270 267 283 282 282 270 251 247 248 242 238 235 235 234 233 234 234 236 236 235 234 234 234 232 231 231 229
266 248 270 275 290 299 287 269 262 219 249 278 271 287 299 303 302 272 264 251 254 249 241 237 236 236 236 234 233 234 235 234 232 231 230 229 228 225
250 252 267 274 281 280 282 279 270 251 231 266 282 285 274 278 287 286 278 268 259 265 256 247 243 242 239 237 235 234 236 235 232 229 226 223 223 223
248 248 255 258 273 279 279 283 278 281 246 251 273 276 271 288 303 298 298 283 277 280 277 267 256 250 244 242 236 234 235 235 233 227 224 220 220 221
249 248 248 245 252 265 279 279 275 274 268 266 275 283 276 278 285 284 302 288 281 289 290 282 277 265 253 250 243 239 236 234 232 228 225 221 218 218
263 260 258 256 253 251 264 261 263 267 271 268 273 281 283 286 280 266 274 278 275 257 280 285 286 286 270 256 248 244 238 234 231 228 224 222 220 219
267 276 274 265 271 273 273 270 255 249 255 254 264 269 273 266 261 263 268 289 289 266 229 273 265 279 280 254 254 245 240 236 230 224 221 220 220 220
259 269 279 276 275 276 283 288 282 273 252 232 244 255 259 258 249 268 264 255 258 247 235 268 262 270 276 263 253 244 243 238 230 224 221 221 220 219
256 249 248 264 274 270 275 282 279 278 267 255 242 250 252 249 232 239 249 262 269 262 206 244 261 266 278 268 259 245 242 239 232 226 224 222 219 218
267 255 241 253 269 270 264 277 286 287 286 283 274 267 269 270 260 249 265 263 277 269 228 222 254 272 274 270 270 257 246 240 238 234 229 223 216 212
279 277 268 263 266 256 243 255 275 279 287 298 293 289 276 272 263 222 219 235 254 263 238 218 244 255 286 275 276 277 260 251 248 244 237 228 216 201
273 277 274 280 277 268 247 240 253 264 273 272 276 278 278 270 262 252 230 220 233 250 236 204 226 225 226 263 275 269 259 256 240 244 242 235 216 196
259 267 273 282 284 282 264 258 263 265 266 271 276 276 272 270 268 261 253 245 242 244 244 209 215 219 220 248 264 263 269 254 230 246 239 231 221 212
261 272 281 284 290 287 274 266 261 248 245 257 267 268 264 262 264 264 269 267 270 267 260 223 223 229 214 225 238 241 260 265 237 236 234 224 216 207
279 293 296 295 287 275 278 277 256 238 232 244 256 267 276 277 270 259 258 265 272 280 277 259 235 223 229 235 224 237 235 229 242 242 234 239 228 210
276 309 309 308 306 299 287 277 266 257 252 250 251 262 267 269 270 263 247 249 251 264 277 285 275 247 228 217 225 233 232 240 237 228 222 242 244 230
155 270 284 281 276 275 275 275 268 259 252 248 250 252 256 259 267 270 259 247 253 255 257 256 259 332 335 288 230 225 238 241 248 234 213 228 254 250
170 260 272 271 269 267 261 258 258 256 249 246 249 254 259 262 265 267 260 256 256 261 268 260 231 215 248 284 281 230 221 237 234 241 234 228 240 252
255 262 278 280 273 271 268 264 260 261 252 248 251 254 252 254 266 268 264 259 259 264 274 280 258 234 232 249 262 270 234 215 219 238 249 250 256 264
289 282 276 278 280 275 270 268 258 254 255 253 257 257 258 253 263 269 273 277 267 258 262 269 266 264 260 258 279 288 279 244 221 228 232 243 261 260
294 297 294 284 280 282 280 267 255 259 262 263 268 266 263 266 264 271 274 274 267 263 270 281 289 289 242 237 259 272 287 298 282 263 243 225 213 215
288 289 293 299 294 294 295 299 286 265 262 267 266 263 263 265 263 266 269 269 267 271 280 285 297 297 272 238 251 272 286 296 305 309 308 298 261 242
Height
1514 1513 1513 1512 1511 1511 1510 1508 1508 1505 1504 1503 1502 1502 1501 1501 1500 1499 1499 1498 1498 1497 1497 1497 1496 1496 1496 1496 1495 1495 1495 1495 1496 1496 1496 1497 1497 1498
1513 1512 1511 1510 1509 1508 1507 1506 1505 1504 1502 1501 1500 1499 1498 1498 1497 1496 1496 1495 1495 1494 1494 1493 1493 1493 1492 1492 1492 1492 1492 1492 1492 1492 1493 1493 1494 1494
1511 1510 1508 1508 1506 1505 1504 1504 1503 1502 1499 1498 1497 1497 1495 1495 1494 1494 1493 1492 1491 1491 1490 1490 1489 1489 1489 1489 1488 1488 1488 1488 1488 1488 1488 1489 1489 1490
1508 1507 1506 1505 1504 1503 1501 1500 1499 1498 1497 1495 1494 1493 1492 1491 1491 1490 1489 1489 1488 1487 1487 1486 1486 1485 1485 1485 1485 1484 1484 1484 1483 1484 1484 1485 1485 1486
1505 1504 1503 1502 1501 1500 1498 1497 1496 1495 1493 1492 1490 1489 1488 1488 1487 1486 1485 1484 1484 1483 1483 1482 1482 1481 1481 1481 1480 1480 1480 1479 1479 1479 1479 1480 1480 1481
1502 1501 1500 1499 1497 1496 1495 1493 1492 1491 1490 1489 1487 1485 1485 1484 1483 1481 1480 1480 1479 1479 1479 1478 1478 1477 1477 1476 1476 1476 1475 1475 1474 1474 1475 1475 1475 1476
1499 1498 1497 1496 1495 1493 1492 1490 1489 1487 1486 1485 1483 1482 1480 1479 1478 1477 1476 1475 1475 1475 1474 1474 1474 1473 1472 1472 1472 1471 1470 1470 1470 1470 1470 1470 1470 1471
1496 1495 1493 1492 1491 1490 1488 1487 1485 1484 1482 1481 1480 1478 1477 1476 1475 1474 1473 1472 1470 1471 1470 1470 1470 1469 1468 1468 1467 1467 1466 1465 1465 1465 1465 1465 1465 1466
1493 1491 1490 1489 1488 1486 1484 1483 1482 1480 1479 1478 1477 1475 1474 1473 1472 1471 1470 1469 1468 1467 1467 1465 1465 1464 1464 1464 1463 1462 1461 1461 1460 1460 1460 1460 1460 1461
1489 1488 1486 1485 1484 1482 1481 1479 1478 1477 1476 1475 1474 1472 1471 1470 1469 1468 1467 1465 1464 1464 1463 1461 1460 1460 1460 1459 1459 1458 1458 1457 1456 1456 1455 1455 1456 1456
1485 1484 1482 1481 1480 1478 1477 1475 1474 1473 1472 1471 1470 1469 1467 1466 1465 1464 1462 1461 1459 1459 1459 1458 1456 1456 1455 1454 1454 1454 1454 1453 1452 1451 1451 1451 1451 1452
1481 1480 1479 1477 1476 1474 1473 1471 1470 1468 1468 1466 1465 1464 1463 1462 1461 1459 1458 1457 1455 1454 1454 1454 1453 1452 1451 1450 1450 1450 1449 1448 1448 1447 1447 1447 1447 1447
1477 1475 1474 1473 1471 1470 1469 1467 1466 1465 1464 1462 1460 1459 1458 1457 1456 1455 1454 1453 1452 1450 1451 1450 1449 1448 1448 1446 1445 1445 1445 1444 1443 1443 1443 1443 1443 1443
1472 1471 1469 1468 1467 1466 1465 1463 1462 1461 1459 1458 1456 1454 1453 1452 1451 1451 1450 1449 1448 1447 1447 1446 1445 1444 1443 1442 1441 1441 1441 1440 1440 1439 1439 1439 1438 1439
1467 1466 1465 1464 1463 1462 1460 1459 1458 1456 1455 1453 1451 1450 1449 1448 1448 1446 1446 1445 1444 1443 1443 1442 1441 1440 1440 1438 1437 1437 1436 1436 1436 1436 1435 1434 1434 1434
1463 1462 1461 1460 1458 1457 1456 1454 1453 1452 1450 1449 1447 1446 1446 1445 1444 1442 1441 1440 1439 1438 1438 1438 1437 1437 1435 1434 1434 1433 1433 1432 1432 1432 1431 1430 1430 1430
1459 1457 1456 1455 1454 1452 1451 1449 1448 1447 1446 1444 1443 1442 1441 1440 1439 1438 1437 1436 1435 1434 1433 1433 1433 1433 1432 1431 1430 1430 1429 1428 1428 1428 1427 1426 1426 1426
1454 1453 1452 1451 1449 1447 1446 1444 1443 1442 1441 1440 1439 1438 1437 1436 1435 1434 1433 1432 1431 1430 1430 1429 1429 1429 1428 1428 1428 1426 1425 1424 1424 1423 1423 1422 1421 1422
1450 1449 1448 1446 1445 1443 1441 1440 1438 1437 1436 1435 1434 1433 1433 1432 1431 1430 1429 1428 1427 1426 1426 1425 1425 1425 1423 1422 1422 1423 1421 1420 1420 1419 1418 1418 1417 1417
1447 1446 1444 1442 1440 1438 1437 1435 1433 1432 1431 1430 1430 1429 1428 1427 1426 1426 1425 1424 1423 1422 1422 1422 1422 1421 1420 1419 1418 1417 1418 1417 1415 1414 1414 1414 1413 1413
1444 1442 1440 1438 1436 1434 1432 1430 1429 1427 1426 1426 1425 1424 1423 1423 1422 1421 1421 1420 1419 1418 1417 1417 1417 1418 1417 1416 1415 1413 1413 1413 1412 1411 1410 1410 1409 1408
1441 1439 1436 1434 1432 1430 1428 1426 1424 1423 1422 1421 1420 1419 1419 1418 1418 1417 1416 1416 1415 1415 1414 1414 1414 1413 1413 1411 1410 1409 1408 1408 1408 1408 1407 1406 1405 1404
1438 1436 1433 1431 1429 1426 1424 1422 1420 1419 1418 1417 1416 1415 1415 1414 1413 1413 1413 1412 1412 1411 1411 1410 1410 1409 1409 1408 1407 1406 1405 1404 1403 1403 1403 1403 1402 1402